Tracking 31027 objects as of 19-Jul-2025
HD Live streaming from Space Station
objects crossing your sky now

CZ-3A DEB

Track CZ-3A DEB now!


NORAD ID: 35551
Int'l Code: 2007-003K
Perigee: 628.9 km
Apogee: 37,128.1 km
Inclination: 25.6 °
Period: 665.5 minutes
Semi major axis: 25249 km
RCS: 0.2188 m2 (medium)
Launch date: February 2, 2007
Source: People's Republic of China (PRC)
Launch site: Xichang Space Center, China (XSC)

Note: This is SATELLITE DEBRIS
Your satellite tracking list
STARLINK-6351
Track 1 satellite(s)




NASA's NSSDC Master Catalog

Two Line Element Set (TLE):
1 35551U 07003K   25194.40840504 -.00000073  00000-0  19031-2 0  9992
2 35551  25.5809 343.7401 7227713 306.1509   6.8050  2.16383069137418
Source of the keplerian elements: AFSPC